Flag for Canada Weather past 2 weeks in Montreal, Quebec, Canada

50 °F

Passing clouds.

Feels Like: 46 °F
Forecast: 36 / 49 °F
Wind: 10 mph from Southwest

Location: Montreal - Pierre Elliot Trudeau International Aiport

Current Time: Oct 10, 2015 at 3:53:11 PM

Latest Report: Oct 10, 2015 at 3:00 PM

Visibility: 30 mi

Pressure: 30.07 "Hg

Humidity: 47%

Dew point: 30 °F

Location of MontrealLocation

Historic Weather in Montreal — Graph


Montreal temperature yesterday

Maximum temperature yesterday: 48 °F (at 12:00 AM)
Minimum temperature yesterday: 41 °F (at 8:00 AM)
Average temperature yesterday: 45 °F

Past Weeks' High & Low Weather Summary

High77 °F (Sep 29, 3:00 PM)100% (Sep 30, 12:00 AM)30.62 "Hg (Sep 30, 12:00 AM)
Low37 °F (Oct 4, 6:00 AM)32% (Sep 26, 5:00 PM)29.73 "Hg (Oct 9, 1:00 PM)
Average53 °F70%30.22 "Hg
* Reported Sep 25 2:00 PM — Oct 10 2:00 PM, Montreal, Weather by CustomWeather, © 2015

Note: Actual official high and low records may vary slightly from our data, if they occured in-between our weather recording intervals... More about our weather records


Montreal weather history for previous 24 hours

Time TempWeatherWind HumidityBarometerVisibility
2:00 PM
Sat, Oct 10
48 °FPartly sunny.12 mph50%30.11 "Hg30 mi
1:00 PM46 °FPassing clouds.3 mph53%30.13 "Hg30 mi
12:00 PM46 °FPassing clouds.8 mph53%30.16 "Hg30 mi
11:00 AM45 °FPassing clouds.5 mph53%30.18 "Hg30 mi
10:00 AM43 °FScattered clouds.2 mph61%30.19 "Hg30 mi
9:00 AM41 °FPartly sunny.2 mph70%30.19 "Hg30 mi
8:00 AM37 °FPassing clouds.7 mph81%30.14 "Hg15 mi
7:00 AM37 °FPassing clouds.8 mph81%30.13 "Hg15 mi
6:00 AM39 °FClear.9 mph81%30.10 "Hg15 mi
5:00 AM39 °FClear.7 mph87%30.08 "Hg15 mi
4:00 AM41 °FPassing clouds.7 mph87%30.05 "Hg15 mi
3:00 AM43 °FPassing clouds.6 mph87%30.03 "Hg15 mi
2:00 AM43 °FPassing clouds.7 mph87%30.00 "Hg15 mi
1:00 AM41 °FPassing clouds.9 mph93%29.98 "Hg15 mi
12:00 AM41 °FPassing clouds.9 mph93%29.96 "Hg15 mi
11:00 PM
Fri, Oct 9
45 °FPassing clouds.8 mph87%29.95 "Hg15 mi
10:00 PM46 °FPassing clouds.8 mph82%29.93 "Hg15 mi
9:00 PM46 °FPassing clouds.8 mph82%29.90 "Hg15 mi
8:00 PM48 °FPassing clouds.9 mph82%29.87 "Hg15 mi
7:00 PM48 °FMostly cloudy.13 mph87%29.83 "Hg15 mi
6:00 PM45 °FMostly cloudy.6 mph93%29.80 "Hg10 mi
5:00 PM45 °FCloudy.5 mph93%29.78 "Hg10 mi
4:00 PM43 °FDrizzle. Fog.10 mph100%29.76 "Hg6 mi
3:00 PM43 °FDrizzle. Fog.12 mph93%29.74 "Hg3 mi
Weather by CustomWeather, © 2015

See weather overviewHow to use our weather pages